Regional Weather Roundup
Issued by NWS

Home | Current Version | Previous Version | Text Only | Print | Product List | Glossary On
Versions: 1 2 3 4 5 6 7 8 9 10 11 12 13 14 15 16 17 18 19 20 21 22 23 24 25 26 27 28 29 30 31 32 33 34 35 36 37 38 39 40 41 42 43 44 45 46 47 48 49 50
000
ASUS43 KTOP 171559
RWRKS

WEATHER ROUNDUP FOR KANSAS
NATIONAL WEATHER SERVICE GOODLAND KS
1100 AM CDT THU AUG 17 2017

NOTE:  "FAIR" INDICATES FEW OR NO CLOUDS BELOW 12,000 FEET WITH NO
SIGNIFICANT WEATHER AND/OR OBSTRUCTIONS TO VISIBILITY.

KSZ001>006-013>018-027>032-041>047-171700-
NORTHWEST KANSAS

CITY           SKY/WX    TMP DP  RH WIND       PRES   REMARKS
GOODLAND       MOSUNNY   71  58  63 SW10      30.13S
HAYS           SUNNY     77  60  55 VRB5      30.08S
HILL CITY      MOSUNNY   77  61  57 W10       30.08F
RUSSELL        SUNNY     78  62  57 W10       30.06S
$$

KSZ061>065-074>080-084>089-171700-
SOUTHWEST KANSAS

CITY           SKY/WX    TMP DP  RH WIND       PRES   REMARKS
DODGE CITY     CLOUDY    73  60  63 CALM      30.12R
ELKHART          N/A     75  63  66 SE9         N/A
GARDEN CITY    SUNNY     74  60  61 S7        30.13F
GREAT BEND     SUNNY     77  62  59 N8        30.08R
LIBERAL        CLOUDY    76  63  64 MISG        N/A
$$

KSZ066>073-081>083-090>101-171700-
SOUTHEAST KANSAS

CITY           SKY/WX    TMP DP  RH WIND       PRES   REMARKS
CHANUTE        CLOUDY    78  65  63 N8        30.02R
COFFEYVILLE    CLOUDY    77  69  76 VRB3      30.02R
HUTCHINSON     SUNNY     79  56  45 N10       30.05R
MEDICINE LODGE   N/A     81  58  45 N7        30.07R
NEWTON         SUNNY     76  62  62 N12       30.06R
PARSONS        CLOUDY    77  67  71 N6        30.03R
WICHITA INTL   MOSUNNY   79  63  57 N8        30.05R
WICHITA JABRA  SUNNY     77  63  61 NW8       30.05R
WINFIELD       SUNNY     78  66  66 N6        30.06R
$$

KSZ007>012-019>026-033>040-048>060-102>105-171700-
NORTHEAST KANSAS

CITY           SKY/WX    TMP DP  RH WIND       PRES   REMARKS
CONCORDIA      SUNNY     75  59  57 W13       30.03R
EMPORIA        SUNNY     75  63  66 N6        30.03R
LAWRENCE       SUNNY     76  66  71 W12       29.98S
MANHATTAN      SUNNY     77  62  59 VRB7      30.01R
OLATHE IND     SUNNY     75  65  70 NW10      29.99R
OLATHE EXE     MOSUNNY   74  65  73 NW10      29.98R
SALINA         SUNNY     80  59  48 NW9       30.05R
TOPEKA BILLARD SUNNY     77  65  66 W6        29.98S
TOPEKA FORBES  SUNNY     77  63  61 NW9       29.99S
$$



USA.gov is the U.S. government's official web portal to all federal, state and local government web resources and services.